Вернуться в каталог

OPS 0856 DEB

LostPO
NORAD 25827·DEBRIS·🇺🇸 United States

Запущен Aug 19, 1966 с Vandenberg Space Force Base

Loading…

Ближайшие Пролёты (ближайшие 24 часа)

TLE

УстаревшееSource: Space-Track

Эпоха: Sep 27, 2013, 15:41 UTC

1 25827U 66077U   13270.65361210 +.00000006 +00000-0 +10000-3 0  9997
2 25827 089.5855 160.2027 1152442 072.8835 246.2358 08.75713636518871

Отслеживайте OPS 0856 DEB в реальном времени с AllMySat

Download on the App Store